Location: Zagreb
(45.8000°N, 16.0000°E)
Time: 03:20:11
(UTC+01:00)

Courier 1B - Pass Details

Date: 06 October 2020
Orbit: 963 x 1209 km, 28.3° (Epoch: 25 October)

Event Time Altitude Azimuth Distance (km) Brightness Sun altitude
Rises 21:24:01 0° 231° (SW) 4,047 11.0 -31.0°
Reaches altitude 10° 21:27:42 10° 215° (SW) 3,112 10.2 -31.6°
Enters shadow 21:29:51 16° 200° (SSW) 2,715 9.7 -31.9°
